TimeAKDT,TemperatureF,Dew PointF,Humidity,Sea Level PressureIn,VisibilityMPH,Wind Direction,Wind SpeedMPH,Gust SpeedMPH,PrecipitationIn,Events,Conditions,WindDirDegrees,DateUTC
12:53 AM,-6.0,-11.0,79,30.69,10.0,Calm,Calm,-,N/A,,Clear,0,2012-10-24 08:53:00
1:53 AM,-6.0,-11.0,79,30.69,10.0,Calm,Calm,-,N/A,,Clear,0,2012-10-24 09:53:00
2:53 AM,-8.0,-13.0,79,30.70,10.0,Calm,Calm,-,N/A,,Clear,0,2012-10-24 10:53:00
3:53 AM,-9.0,-13.0,83,30.70,10.0,Calm,Calm,-,N/A,,Clear,0,2012-10-24 11:53:00
4:53 AM,-9.0,-15.0,75,30.70,10.0,Calm,Calm,-,N/A,,Clear,0,2012-10-24 12:53:00
5:53 AM,-8.0,-11.9,83,30.71,10.0,Calm,Calm,-,N/A,,Clear,0,2012-10-24 13:53:00
6:53 AM,-9.0,-13.0,83,30.71,10.0,Calm,Calm,-,N/A,,Clear,0,2012-10-24 14:53:00
7:53 AM,-8.0,-13.0,79,30.71,10.0,Calm,Calm,-,N/A,,Clear,0,2012-10-24 15:53:00
8:53 AM,-9.0,-14.1,79,30.73,10.0,Calm,Calm,-,N/A,,Clear,0,2012-10-24 16:53:00
9:53 AM,-8.0,-13.0,79,30.72,10.0,ENE,3.5,-,N/A,,Clear,70,2012-10-24 17:53:00
10:53 AM,-2.9,-7.1,82,30.73,10.0,Calm,Calm,-,N/A,,Clear,0,2012-10-24 18:53:00
11:53 AM,-0.0,-5.1,79,30.73,10.0,Calm,Calm,-,N/A,,Clear,0,2012-10-24 19:53:00
12:53 PM,3.9,-2.0,76,30.72,10.0,Calm,Calm,-,N/A,,Clear,0,2012-10-24 20:53:00
1:53 PM,9.0,1.9,73,30.71,10.0,NNE,3.5,-,N/A,,Clear,30,2012-10-24 21:53:00
2:53 PM,14.0,5.0,67,30.71,10.0,Calm,Calm,-,N/A,,Clear,0,2012-10-24 22:53:00
3:53 PM,16.0,6.1,65,30.70,10.0,Calm,Calm,-,N/A,,Clear,0,2012-10-24 23:53:00
4:53 PM,17.1,8.1,68,30.70,10.0,Calm,Calm,-,N/A,,Clear,0,2012-10-25 00:53:00
5:53 PM,14.0,8.1,77,30.71,10.0,Calm,Calm,-,N/A,,Clear,0,2012-10-25 01:53:00
6:53 PM,6.1,3.0,87,30.71,10.0,Calm,Calm,-,N/A,,Clear,0,2012-10-25 02:53:00
7:53 PM,3.9,1.0,88,30.71,10.0,Calm,Calm,-,N/A,,Clear,0,2012-10-25 03:53:00
8:53 PM,1.9,-2.0,83,30.71,10.0,NNE,3.5,-,N/A,,Clear,20,2012-10-25 04:53:00
9:53 PM,1.9,-0.9,88,30.71,10.0,North,3.5,-,N/A,,Clear,10,2012-10-25 05:53:00
10:53 PM,1.9,-2.0,83,30.71,10.0,NE,5.8,-,N/A,,Clear,40,2012-10-25 06:53:00
11:53 PM,1.0,-2.9,83,30.70,10.0,North,3.5,-,N/A,,Clear,360,2012-10-25 07:53:00